Flag for U.S.A. Weather past 2 weeks in Redmond, Washington, U.S.A.

Now
61 °F

Scattered clouds.


Feels Like: 61 °F
Forecast: 53 / 59 °F
Wind: 7 mph from Southeast

Location: Seattle Boeing Field

Current Time: Oct 20, 2014 at 7:37:44 PM

Latest Report: Oct 20, 2014 at 6:53 PM


Visibility: 10 mi

Pressure: 29.75 "Hg

Humidity: 72%

Dew point: 52 °F

Location of RedmondLocation

Historic Weather in Redmond — Graph

°F

Redmond temperature yesterday

Maximum temperature yesterday: 74 °F (at 2:53 PM)
Minimum temperature yesterday: 57 °F (at 4:53 AM)
Average temperature yesterday: 65 °F

Past Weeks' High & Low Weather Summary

 TemperatureHumidityPressure
High77 °F (Oct 6, 3:53 PM)94% (Oct 10, 5:01 AM)30.25 "Hg (Oct 10, 5:01 AM)
Low52 °F (Oct 16, 2:53 AM)37% (Oct 16, 2:53 PM)29.51 "Hg (Oct 15, 4:53 AM)
Average61 °F76%29.91 "Hg
* Reported Oct 5 5:53 PM — Oct 20 5:53 PM, Redmond, Weather by CustomWeather, © 2014

Note: Actual official high and low records may vary slightly from our data, if they occured in-between our weather recording intervals... More about our weather records

Advertising

Redmond weather history for previous 24 hours

 ConditionsComfort  
Time TempWeatherWind HumidityBarometerVisibility
5:53 PM
Oct 20
61 °FScattered clouds.8 mph75%29.75 "Hg10 mi
4:53 PM64 °FScattered clouds.9 mph68%29.75 "Hg10 mi
3:53 PM64 °FMostly cloudy.12 mph68%29.75 "Hg10 mi
2:53 PM64 °FBroken clouds.9 mph73%29.75 "Hg10 mi
1:53 PM63 °FPartly sunny.7 mph75%29.76 "Hg10 mi
12:53 PM64 °FPartly sunny.8 mph68%29.74 "Hg10 mi
11:53 AM63 °FBroken clouds.No wind75%29.75 "Hg10 mi
10:53 AM63 °FBroken clouds.6 mph75%29.76 "Hg10 mi
9:53 AM62 °FPartly sunny.7 mph80%29.75 "Hg10 mi
8:53 AM60 °FBroken clouds.5 mph86%29.73 "Hg10 mi
7:53 AM60 °FLight rain. Mostly cloudy.8 mph83%29.72 "Hg10 mi
6:53 AM61 °FOvercast.No wind83%29.70 "Hg10 mi
5:53 AM60 °FOvercast.6 mph90%29.70 "Hg10 mi
4:53 AM60 °FMostly cloudy.7 mph86%29.69 "Hg10 mi
3:53 AM61 °FLight rain. Overcast.7 mph83%29.70 "Hg10 mi
2:53 AM61 °FLight rain. Overcast.9 mph87%29.71 "Hg7 mi
1:53 AM62 °FLight rain. Overcast.5 mph80%29.71 "Hg10 mi
12:53 AM63 °FMostly cloudy.No wind75%29.70 "Hg10 mi
11:53 PM
Oct 19
63 °FPassing clouds.No wind75%29.69 "Hg10 mi
10:53 PM63 °FPassing clouds.No wind75%29.70 "Hg10 mi
9:53 PM64 °FPassing clouds.No wind73%29.69 "Hg10 mi
7:53 PM67 °FPassing clouds.7 mph66%29.68 "Hg10 mi
Weather by CustomWeather, © 2014

See weather overviewHow to use our weather pages